Regional Weather Roundup
Issued by NWS

Home | Current Version | Previous Version | Text Only | Print | Product List | Glossary On
Versions: 1 2 3 4 5 6 7 8 9 10 11 12 13 14 15 16 17 18 19 20 21 22 23 24 25 26 27 28 29 30 31 32 33 34 35 36 37 38 39 40 41 42 43 44 45 46 47 48 49 50
000
ASUS43 KBIS 060102
RWRND

NORTH DAKOTA REGIONAL WEATHER ROUNDUP
NATIONAL WEATHER SERVICE BISMARCK ND
700 PM CST FRI FEB 05 2016

NOTE: "FAIR" INDICATES FEW OR NO CLOUDS BELOW 12,000 FEET WITH NO
SIGNIFICANT WEATHER AND/OR OBSTRUCTIONS TO VISIBILITY.


NDZ001>003-009>011-017-060200-
NORTHWEST NORTH DAKOTA

CITY           SKY/WX    TMP DP  RH WIND       PRES   REMARKS
WILLISTON      CLEAR     35  25  66 S3        30.02F
MINOT          CLOUDY    34  21  59 SW7       30.02F
MINOT AFB      CLOUDY    27  22  81 CALM      30.02S
$$

NDZ018>021-031>035-040>046-060200-
SOUTHWEST NORTH DAKOTA

CITY           SKY/WX    TMP DP  RH WIND       PRES   REMARKS
BISMARCK       CLEAR     34  23  64 SW5       30.10F
DICKINSON      CLEAR     32  23  69 SW12      30.04F
GARRISON         N/A     26  20  77 W8        30.06S WCI  18
HETTINGER ARPT CLEAR     26  18  71 W7        30.11F WCI  18
$$

NDZ004>008-012>016-024-026-027-054-060200-
NORTHEAST NORTH DAKOTA

CITY           SKY/WX    TMP DP  RH WIND       PRES   REMARKS
GRAND FORKS    CLOUDY    21  16  81 SW7       30.12F WCI  12
GRND FRKS AFB  CLOUDY    19  16  87 SW6       30.12S WCI  11
DEVILS LAKE    CLOUDY    20  17  88 S5        30.06F WCI  13
$$

NDZ022-023-025-028>030-036>039-047>053-060200-
SOUTHEAST NORTH DAKOTA

CITY           SKY/WX    TMP DP  RH WIND       PRES   REMARKS
FARGO          CLEAR     19  16  88 CALM      30.15R
JAMESTOWN      CLOUDY    26  18  71 S5        30.09F
$$




USA.gov is the U.S. government's official web portal to all federal, state and local government web resources and services.